Погода в Новотроицком

Россия / Республика Татарстан     55°01′07″N   51°27′37″E
темп.,
°C
ветер,
м/с
пор.,
м/с
влажн.,
%
обл.,
%
осадки,
мм/ч
давл.,
гПа
погр.,
м
10 апреля, сб
сб1000:00+1ссв4898100 0.1 1027302
03:00+1ссв4998100 0.1 1028322
06:00+1всв51099100 0.1 1028325
09:00+2всв49100100 0.1 1029320
12:00+4всв59100100 0.0 1027322
15:00+6в4793100 0.0 1026334
18:00+6св3395100 0.1 102549
21:00+6всв2293100 0.1 102526
11 апреля, вс
вс1100:00+7вюв399299 0.1 1024158
03:00+8ююв4989100 0.1 1025171
06:00+9ююв41188100 0.0 1026276
09:00+12ю51279100 0.0 1027563
12:00+15ююз5970100 0.0 1028768
15:00+11ссз4489100 0.0 1029192
18:00+10св2292100 0.1 103140
21:00+8ссв3496100 0.1 103277
12 апреля, пн
пн1200:00+7ссв3697100 0.0 1033130
03:00+7св3697100 0.0 1034138
06:00+7св4797100 0.0 1034177
09:00+10всв468696 0.0 1035334
12:00+14в446974 0.0 1035628
15:00+16в446027 0.0 1034963
18:00+13всв487827 0.0 1034179
21:00+10в489276 0.0 1035162
13 апреля, вт
вт1300:00+9вюв229049 0.0 103428
03:00+8вюв228674 0.0 103411
06:00+8юв228073 0.0 103420
09:00+13ю464955 0.0 1034448
12:00+16ю45365 0.0 1033880
15:00+17ю45318 0.0 10321091
18:00+14ююв33455 0.0 103125
21:00+10ю225423 0.0 103116
14 апреля, ср
ср1400:00+8ю22596 0.0 103015
03:00+7ю22655 0.0 103015
06:00+7ю226871 0.0 102933
09:00+12ю455178 0.0 1028324
12:00+16ююз443949 0.0 1027874
15:00+17ююз34335 0.0 10261124
18:00+14ююз22465 0.0 102411
21:00+11ю22525 0.0 102410